| time (UTC) | temp C | wind direction | speed KPH | gust KPH | rain 1hr cm | rain 24hr cm | rain mn cm | humidity % | barometer mb |
| 20260508171548 | 14 | 9 | 3.2 | 14.5 | 0.00 | 3.20 | 0.03 | 67 | 1000.8 |
| 20260508170027 | 13 | 45 | 3.2 | 12.9 | 0.00 | 3.20 | 0.03 | 72 | 1000.9 |
| 20260508164522 | 13 | 92 | 3.2 | 9.7 | 0.00 | 3.33 | 0.03 | 74 | 1000.9 |
| 20260508163017 | 13 | 104 | 1.6 | 9.7 | 0.00 | 3.33 | 0.03 | 76 | 1000.9 |
| 20260508161523 | 12 | 98 | 1.6 | 6.4 | 0.00 | 3.33 | 0.03 | 79 | 1000.9 |
| 20260508160008 | 10 | 75 | 1.6 | 6.4 | 0.00 | 3.33 | 0.03 | 83 | 1001.0 |
| 20260508154503 | 10 | 24 | 3.2 | 12.9 | 0.00 | 3.38 | 0.03 | 85 | 1001.4 |
| 20260508153103 | 10 | 18 | 1.6 | 8.0 | 0.00 | 3.38 | 0.03 | 89 | 1001.3 |
| 20260508151559 | 9 | 14 | 3.2 | 8.0 | 0.00 | 3.38 | 0.03 | 91 | 1001.5 |
| 20260508150122 | 9 | 323 | 3.2 | 9.7 | 0.00 | 3.38 | 0.03 | 93 | 1001.4 |
| 20260508144601 | 8 | 48 | 3.2 | 9.7 | 0.00 | 3.38 | 0.03 | 94 | 1001.4 |
| 20260508143051 | 8 | 68 | 4.8 | 14.5 | 0.00 | 3.38 | 0.03 | 94 | 1001.5 |
| 20260508141557 | 8 | 22 | 3.2 | 9.7 | 0.00 | 3.38 | 0.03 | 94 | 1001.6 |
| 20260508140054 | 7 | 355 | 3.2 | 12.9 | 0.00 | 3.38 | 0.03 | 94 | 1001.6 |
| 20260508134545 | 7 | 59 | 3.2 | 8.0 | 0.00 | 3.38 | 0.03 | 94 | 1001.9 |
| 20260508123038 | 6 | 50 | 3.2 | 9.7 | 0.00 | 3.38 | 0.03 | 94 | 1002.0 |
| 20260508121536 | 6 | 327 | 1.6 | 6.4 | 0.00 | 3.38 | 0.03 | 95 | 1001.9 |
| 20260508120034 | 6 | 23 | 3.2 | 6.4 | 0.00 | 3.38 | 0.03 | 94 | 1001.7 |
| 20260508114535 | 6 | 51 | 1.6 | 8.0 | 0.00 | 3.40 | 0.03 | 94 | 1002.1 |
| 20260508113045 | 6 | 14 | 0.0 | 8.0 | 0.00 | 3.40 | 0.03 | 95 | 1002.1 |
| 20260508111529 | 6 | 124 | 1.6 | 9.7 | 0.00 | 3.40 | 0.03 | 94 | 1002.3 |
| 20260508110028 | 6 | 77 | 3.2 | 11.3 | 0.00 | 3.40 | 0.03 | 94 | 1002.1 |
| 20260508104532 | 6 | 59 | 1.6 | 9.7 | 0.00 | 3.43 | 0.03 | 94 | 1001.9 |
| 20260508103026 | 6 | 49 | 1.6 | 6.4 | 0.00 | 3.43 | 0.03 | 94 | 1002.2 |
| 20260508101528 | 7 | 49 | 0.0 | 0.0 | 0.00 | 3.43 | 0.03 | 95 | 1002.2 |
| 20260508100032 | 6 | 49 | 0.0 | 4.8 | 0.00 | 3.43 | 0.03 | 94 | 1002.2 |
| 20260508094523 | 6 | 59 | 0.0 | 4.8 | 0.00 | 3.43 | 0.03 | 94 | 1001.9 |
| 20260508093018 | 6 | 139 | 0.0 | 1.6 | 0.00 | 3.43 | 0.03 | 94 | 1001.7 |
| 20260508091513 | 6 | 139 | 0.0 | 0.0 | 0.00 | 3.43 | 0.03 | 94 | 1001.8 |
| 20260508090011 | 6 | 139 | 0.0 | 1.6 | 0.00 | 3.43 | 0.03 | 94 | 1001.3 |
| 20260508084510 | 7 | 271 | 0.0 | 4.8 | 0.00 | 3.43 | 0.03 | 94 | 1001.5 |
| 20260508083010 | 7 | 5 | 0.0 | 3.2 | 0.00 | 3.43 | 0.03 | 94 | 1001.4 |
| 20260508081509 | 7 | 5 | 0.0 | 3.2 | 0.00 | 3.43 | 0.03 | 94 | 1001.2 |
| 20260508080010 | 7 | 5 | 1.6 | 4.8 | 0.00 | 3.43 | 0.03 | 94 | 1000.9 |
| 20260508074514 | 7 | 321 | 0.0 | 4.8 | 0.00 | 3.43 | 0.03 | 95 | 1000.9 |
| 20260508073006 | 8 | 339 | 3.2 | 11.3 | 0.00 | 3.43 | 0.03 | 95 | 1000.9 |
| 20260508071505 | 8 | 324 | 0.0 | 9.7 | 0.00 | 3.43 | 0.03 | 94 | 1001.0 |
| 20260508070003 | 8 | 277 | 3.2 | 14.5 | 0.00 | 3.43 | 0.03 | 95 | 1001.3 |
| 20260508064502 | 8 | 257 | 3.2 | 9.7 | 0.00 | 3.43 | 0.03 | 95 | 1001.0 |
| 20260508063059 | 7 | 360 | 0.0 | 8.0 | 0.00 | 3.43 | 0.03 | 95 | 1001.1 |
| 20260508061602 | 7 | 355 | 0.0 | 0.0 | 0.03 | 3.43 | 0.03 | 95 | 1001.0 |
| 20260508060101 | 7 | 355 | 0.0 | 0.0 | 0.03 | 3.43 | 0.03 | 95 | 1001.4 |
| 20260508054625 | 7 | 355 | 0.0 | 0.0 | 0.03 | 3.43 | 0.03 | 95 | 1001.1 |
| 20260508053105 | 6 | 355 | 0.0 | 0.0 | 0.03 | 3.43 | 0.03 | 94 | 1001.1 |
| 20260508051559 | 6 | 355 | 0.0 | 0.0 | 0.00 | 3.40 | 0.00 | 94 | 1001.3 |
| 20260508050056 | 6 | 355 | 0.0 | 0.0 | 0.00 | 3.40 | 0.00 | 94 | 1000.9 |
| 20260508044553 | 6 | 355 | 0.0 | 0.0 | 0.00 | 3.40 | 0.00 | 94 | 1001.0 |
| 20260508043055 | 7 | 355 | 0.0 | 0.0 | 0.00 | 3.40 | 0.00 | 94 | 1001.2 |
| 20260508041548 | 7 | 355 | 0.0 | 0.0 | 0.00 | 3.40 | 0.00 | 94 | 1001.3 |
| 20260508040054 | 7 | 355 | 0.0 | 3.2 | 0.00 | 3.40 | 0.00 | 94 | 1001.5 |
| 20260508034546 | 7 | 350 | 0.0 | 0.0 | 0.00 | 3.40 | 0.00 | 94 | 1001.5 |
| 20260508033042 | 7 | 350 | 0.0 | 0.0 | 0.00 | 3.40 | 0.00 | 94 | 1001.7 |
| 20260508031549 | 8 | 64 | 0.0 | 0.0 | 0.00 | 3.40 | 0.00 | 94 | 1002.0 |
| 20260508030034 | 8 | 64 | 0.0 | 0.0 | 0.00 | 3.40 | 0.00 | 94 | 1001.9 |
| 20260508024534 | 8 | 64 | 0.0 | 0.0 | 0.00 | 3.40 | 3.40 | 94 | 1002.1 |
| 20260508023034 | 8 | 63 | 0.0 | 0.0 | 0.00 | 3.40 | 3.40 | 94 | 1001.9 |
| 20260508021532 | 8 | 163 | 0.0 | 3.2 | 0.00 | 3.40 | 3.40 | 94 | 1001.9 |
| 20260508020033 | 8 | 163 | 0.0 | 9.7 | 0.00 | 3.40 | 3.40 | 94 | 1001.9 |
| 20260508014532 | 8 | 162 | 1.6 | 6.4 | 0.00 | 3.40 | 3.40 | 94 | 1002.0 |
| 20260508013032 | 8 | 194 | 0.0 | 6.4 | 0.00 | 3.40 | 3.40 | 94 | 1001.9 |
| 20260508011538 | 8 | 207 | 0.0 | 4.8 | 0.00 | 3.40 | 3.40 | 94 | 1001.7 |
| 20260508010038 | 8 | 227 | 0.0 | 0.0 | 0.00 | 3.40 | 3.40 | 94 | 1001.5 |
| 20260508004537 | 7 | 227 | 0.0 | 0.0 | 0.00 | 3.40 | 3.40 | 94 | 1001.8 |
| 20260508003029 | 7 | 227 | 0.0 | 3.2 | 0.00 | 3.40 | 3.40 | 94 | 1002.1 |
| 20260508001530 | 8 | 227 | 1.6 | 6.4 | 0.00 | 3.40 | 3.40 | 94 | 1002.0 |
| 20260508000028 | 8 | 113 | 1.6 | 4.8 | 0.00 | 3.40 | 3.40 | 94 | 1002.0 |
| 20260507234535 | 8 | 86 | 0.0 | 6.4 | 0.00 | 3.40 | 3.40 | 94 | 1002.0 |
| 20260507233033 | 7 | 226 | 0.0 | 6.4 | 0.00 | 3.40 | 3.40 | 94 | 1001.9 |
| 20260507231529 | 8 | 248 | 1.6 | 11.3 | 0.00 | 3.40 | 3.40 | 94 | 1002.0 |
| 20260507230026 | 8 | 199 | 3.2 | 12.9 | 0.00 | 3.40 | 3.40 | 94 | 1002.1 |
| 20260507224526 | 8 | 131 | 0.0 | 11.3 | 0.00 | 3.40 | 3.40 | 94 | 1002.1 |
| 20260507223026 | 8 | 143 | 6.4 | 12.9 | 0.00 | 3.40 | 3.40 | 94 | 1001.8 |
| 20260507221525 | 9 | 201 | 6.4 | 17.7 | 0.00 | 3.40 | 3.40 | 94 | 1001.9 |
| 20260507220024 | 9 | 198 | 6.4 | 17.7 | 0.00 | 3.40 | 3.40 | 94 | 1001.7 |
| 20260507214624 | 9 | 154 | 8.0 | 24.1 | 0.00 | 3.40 | 3.40 | 94 | 1002.0 |
| 20260507213022 | 10 | 153 | 11.3 | 33.8 | 0.00 | 3.40 | 3.40 | 94 | 1002.2 |
| 20260507211525 | 10 | 194 | 11.3 | 25.7 | 0.05 | 3.40 | 3.40 | 94 | 1001.9 |
| 20260507210018 | 10 | 167 | 6.4 | 24.1 | 0.15 | 3.40 | 3.40 | 94 | 1001.7 |
| 20260507204516 | 10 | 124 | 11.3 | 22.5 | 0.23 | 3.40 | 3.40 | 94 | 1001.2 |
| 20260507203014 | 10 | 165 | 6.4 | 16.1 | 0.41 | 3.40 | 3.40 | 94 | 1002.3 |
| 20260507201515 | 10 | 154 | 4.8 | 12.9 | 0.64 | 3.35 | 3.35 | 94 | 1003.1 |
| 20260507200008 | 10 | 174 | 6.4 | 12.9 | 0.91 | 3.25 | 3.25 | 94 | 1003.4 |
| 20260507194508 | 10 | 193 | 6.4 | 12.9 | 1.32 | 3.15 | 3.15 | 94 | 1003.4 |
| 20260507193005 | 9 | 204 | 4.8 | 12.9 | 1.55 | 2.97 | 2.97 | 94 | 1003.9 |
| 20260507191502 | 8 | 120 | 3.2 | 12.9 | 1.55 | 2.69 | 2.69 | 94 | 1004.4 |
| 20260507190101 | 8 | 214 | 1.6 | 16.1 | 1.68 | 2.31 | 2.31 | 94 | 1005.0 |
| 20260507184600 | 8 | 181 | 4.8 | 17.7 | 1.45 | 1.83 | 1.83 | 94 | 1004.9 |
| 20260507183100 | 8 | 144 | 6.4 | 17.7 | 1.14 | 1.42 | 1.42 | 94 | 1004.8 |
| 20260507181558 | 7 | 162 | 4.8 | 20.9 | 0.89 | 1.12 | 1.12 | 93 | 1004.6 |
| 20260507180106 | 8 | 205 | 11.3 | 27.4 | 0.41 | 0.61 | 0.61 | 93 | 1005.3 |
| 20260507174630 | 8 | 222 | 14.5 | 29.0 | 0.15 | 0.36 | 0.36 | 94 | 1004.3 |